カタログに戻る

COSMOS 2251 DEB

運用中LEO
NORAD 38068·DEBRIS·🇷🇺 Russia

打ち上げ Jun 16, 1993 から Plesetsk Cosmodrome

Loading…

次のパス (今後24時間)

TLE

古いSource: Space-Track

元期: Sep 6, 2026, 05:00 UTC

1 38068U 93036BSA 26249.20854977  .00000282  00000-0  10508-3 0  9990
2 38068  74.0221 176.6250 0026751 205.8243 154.1576 14.36336959704868

AllMySatでCOSMOS 2251 DEBをリアルタイム追跡

Download on the App Store